STARLINK-5754, 55579

Orbit data source: Space-Track

STARLINK-5754, 55579 is a payload satellite owned by SpaceX/Seattle (US) in LEO that was launched on Sun, 12 Feb 2023 UTC via an FALCON 9 launch vehicle from the Air Force Eastern Test Range (AFETR). Payload-class satellites include a variety of spacecraft equipped with specific instruments for various scientific and technological missions. These include communications satellites like Starlink; space stations such as the ISS; scientific satellites like the Hubble; Earth observation satellites from companies like Planet Labs, Umbra, and HawkEye 360; GPS; miniature CubeSats for education and research; and military/defense satellites.

Loading next visibility...
Identifier
55579, 2023-020L
Orbit
LEO
Country
Flag of USUS
Related business
Manufacturer
SpaceX/Seattle
Mission
Operational spacecraft
Bus & Motor
STARLINK, Unknown motor
Mass
305 kg wet, ~290 kg dry
Launch date (UTC)
2023-02-12 (3 years ago)
Launch vehicle
FALCON 9
Launch site
Air Force Eastern Test Range (AFETR)
Object type
Payload
Rocket body
Debris
Shape & HBR
Unknown shape, 10.1 m
Radar Cross Section
Large (>1 m²)

Expand to show TLE details & history
Last TLE update: 12 hours ago

TLE from 12 hours ago
0 STARLINK-5754
1 55579U 23020L   25340.77626478  .00000154  00000-0  26482-4 0  9995
2 55579  43.0021 149.4257 0001172 270.7334  89.3374 15.02533895154940
Epoch: 2025-12-06T18:37Z
TLE epoch observation values (Epoch: 2025-12-06T18:37:49.276Z)
Latitude
-0°
Longitude
154.17123°
Altitude
558.855 km
Speed
7.584 km/s
True Right ascension
09h 57m 42s
True Declination
0° 00' 00"
Sunlit
Object was in daylight at epoch
Visualization orbit readout
Latitude
Unknown
Longitude
Unknown
Altitude
Unknown
Speed
Unknown
Apparent Right ascension
Unknown
Apparent Declination
Unknown
Sunlit
N/A
Visualization observer readout
Local Sidereal Time
04:17:52
Azimuth
Unknown
Elevation
Unknown
Doppler factor
Unknown
Orbital elements
Apogee altitude
561.823 km
Perigee altitude
560.196 km
Semi-major axis
6,939.147 km
Eccentricity
0.00012
Inclination
43.0021°
RAAN
149.4257°
Arg. of periapsis
270.7334°
True anomaly
89.35083°
Mean anomaly
89.3374°
Eccentric anomaly
89.34411°
Mean motion
3.75478 °/min
Orbital period
95.88 mins
BSTAR
0.000026482
Loading maneuver chart data...
Computing Atmospheric mass density...
Loading historical data...
Loading historical data...
Loading historical data...
Loading historical data...
Loading historical data...
Loading historical data...
Loading historical data...

Documentation

Showing up to 5 results
|